Temp
13 12 12 12 12 12 12 12 12 12 12 13 13 14 15 15 16 16 16 16 16 16 16 16 16 16 16 15 15 15 15 15
13 13 12 12 12 12 12 12 11 11 12 13 14 14 15 15 16 16 16 16 16 16 16 16 16 16 16 15 15 15 15 14
12 11 12 11 11 12 12 11 12 12 13 13 14 15 15 15 16 16 16 16 16 16 16 16 16 16 16 15 15 15 15 14
13 11 11 12 11 12 12 11 12 12 13 13 14 14 15 15 15 16 16 16 16 16 16 16 16 16 16 16 15 15 15 14
13 12 10 11 11 11 12 12 12 12 13 13 14 14 15 15 16 16 16 16 16 16 16 16 16 16 16 16 16 15 15 14
13 13 12 11 11 11 12 12 12 12 12 13 14 14 15 15 16 16 16 16 16 16 16 16 16 15 16 15 15 15 14 14
14 14 13 12 12 12 12 12 12 13 13 14 14 15 15 15 16 16 16 16 17 17 16 16 16 16 15 15 15 14 14 13
14 14 14 13 12 12 12 13 13 13 14 14 14 15 15 16 16 16 16 16 16 17 16 16 16 16 15 15 14 14 13 13
15 15 15 14 13 13 13 13 13 13 14 14 15 15 16 16 16 16 16 16 17 17 16 16 16 16 15 14 13 13 13 13
16 16 15 15 14 14 13 14 14 14 14 14 14 15 15 14 15 15 16 16 16 15 16 17 16 16 15 14 13 13 12 12
17 17 16 15 15 15 14 14 14 14 14 14 14 14 15 14 15 15 16 15 15 14 15 15 15 15 14 13 13 12 12 11
18 17 18 17 16 15 15 15 14 15 15 15 15 15 15 15 15 15 15 15 14 14 14 14 14 14 13 12 12 12 11 10
19 18 18 18 17 17 16 15 15 15 15 16 15 17 16 16 16 16 16 14 14 15 13 14 12 13 12 12 12 11 10 9
19 19 19 18 18 18 17 16 16 16 15 16 15 15 15 15 15 16 15 14 14 15 13 13 12 13 12 12 11 10 9 9
19 19 18 19 19 18 18 17 17 16 16 15 15 16 16 15 16 16 14 14 14 13 12 11 11 11 11 11 9 8 8 7
17 17 15 14 16 18 18 18 17 16 15 15 15 15 13 15 14 13 13 13 12 12 11 10 11 10 9 9 8 7 7 6
17 16 14 13 13 13 14 14 16 16 15 13 12 13 12 13 13 13 12 12 11 10 10 10 9 8 8 8 7 6 5 4
16 17 15 13 12 12 12 11 12 13 11 10 10 11 11 11 11 11 10 9 9 9 8 8 7 7 6 6 6 5 4 4
17 17 12 12 11 10 10 10 11 10 10 9 10 9 9 8 8 8 8 7 7 7 6 6 6 5 5 4 4 4 3 2
Height
753 754 755 758 762 765 769 772 777 782 788 792 797 801 804 808 811 815 817 821 825 827 829 832 834 835 839 843 846 848 852 854
752 753 755 759 763 766 768 771 776 783 787 792 796 799 802 806 811 815 817 821 822 824 829 832 833 835 839 842 846 847 852 853
750 752 756 757 760 765 769 771 776 781 786 791 796 799 802 806 810 813 817 819 822 824 828 829 834 835 837 841 844 845 849 851
744 749 753 756 759 762 765 770 773 779 787 792 795 800 803 807 808 812 815 818 820 824 827 828 832 833 835 837 839 841 844 847
738 742 746 751 755 760 764 770 772 778 783 788 791 795 799 801 804 809 812 816 818 820 824 825 828 829 833 835 836 838 840 842
730 733 736 746 752 757 761 767 773 778 782 785 788 792 796 799 803 804 809 812 814 816 818 820 823 826 828 829 833 833 836 837
726 731 736 743 750 754 758 762 767 771 776 781 785 788 792 796 798 801 804 807 809 809 815 815 816 820 822 825 827 829 830 832
721 727 733 739 746 750 755 760 764 768 772 776 778 781 786 789 790 794 798 801 802 804 808 811 811 813 816 819 821 823 825 827
713 719 726 731 738 744 749 754 760 764 767 770 773 777 781 784 786 789 792 794 796 800 803 805 807 808 811 813 816 816 816 819
705 712 718 725 732 734 739 748 754 758 762 765 768 772 775 777 781 784 786 789 793 796 799 801 802 802 804 807 807 809 811 813
702 708 713 718 723 729 737 742 744 749 756 761 766 771 774 777 781 781 783 786 788 793 797 797 797 798 799 801 801 803 805 807
697 702 706 711 719 726 730 736 738 744 752 762 768 772 773 774 775 775 777 781 784 789 789 790 791 791 793 796 795 798 800 802
690 695 700 707 711 717 719 723 730 738 747 755 759 756 754 759 760 763 767 768 775 780 780 782 780 786 787 790 792 792 793 796
687 692 696 699 703 708 711 716 721 729 735 736 739 743 747 748 750 753 757 763 764 763 770 773 776 775 779 781 784 786 788 792
683 687 688 691 695 698 702 708 713 719 722 729 732 737 738 739 743 746 750 754 758 759 762 769 771 770 773 775 778 782 786 790
680 681 684 685 688 691 696 700 705 710 715 723 726 730 734 737 739 742 746 747 750 754 759 764 764 766 768 771 777 781 785 790
678 679 680 682 684 687 691 694 698 703 708 715 720 726 731 734 737 740 741 744 747 750 756 758 760 764 767 771 775 780 785 790
672 674 673 677 680 686 691 694 697 701 706 713 718 723 729 733 735 736 739 743 746 749 752 756 761 764 768 772 776 780 785 789
660 664 669 675 681 687 691 695 699 703 708 713 719 723 727 731 733 736 739 742 745 749 754 758 762 766 771 776 780 784 788 791
Wind_Speed
16 19 20 21 24 23 24 25 31 28 25 22 22 24 27 32 31 30 30 30 28 27 25 25 23 20 19 19 17 16 15 15
18 19 20 21 24 25 20 27 26 30 26 28 24 24 26 31 29 27 28 26 29 26 26 23 22 20 22 20 19 19 16 16
11 19 21 21 22 24 21 23 29 30 28 26 21 25 26 32 29 26 26 27 26 26 26 24 22 21 22 22 22 21 18 16
11 14 20 20 22 24 23 24 28 28 28 24 21 19 23 26 27 28 27 26 26 27 25 24 24 24 26 26 27 26 22 19
10 12 18 23 25 26 27 26 27 30 30 28 25 22 17 24 27 27 28 29 28 28 27 26 28 28 29 29 27 29 26 22
14 14 20 22 26 30 31 28 28 29 32 29 30 22 22 23 25 26 28 29 31 31 31 30 31 32 32 31 32 32 31 27
14 17 17 19 22 27 32 31 32 33 36 36 32 34 29 29 26 30 33 33 33 33 37 35 33 35 35 35 34 34 33 31
13 15 15 20 23 27 30 31 32 35 38 39 38 38 37 38 37 34 35 35 38 40 38 39 38 41 40 38 37 34 32 31
16 17 20 24 28 30 32 32 34 36 38 38 40 41 41 41 41 38 39 41 41 40 40 38 40 40 40 39 37 30 27 30
17 16 24 27 29 35 38 35 36 38 39 38 39 42 41 37 39 41 41 40 39 36 35 36 38 39 39 35 25 29 30 29
12 14 20 27 32 33 35 38 40 40 37 37 35 34 38 36 31 33 38 35 32 30 32 34 34 33 35 31 33 33 30 29
14 13 22 28 27 29 33 35 38 37 34 28 26 26 29 30 35 35 33 30 25 26 27 27 25 32 34 30 32 30 30 27
15 15 19 22 27 28 35 38 37 34 28 26 30 40 46 40 42 37 34 34 23 21 28 34 38 39 36 32 35 32 29 26
12 12 14 19 25 28 32 33 34 33 35 44 41 38 39 40 37 37 36 31 33 39 37 35 37 33 38 34 37 30 26 23
14 12 13 19 25 28 31 29 34 36 41 35 37 35 38 39 40 40 39 36 38 37 38 36 33 30 34 33 28 24 21 20
11 13 10 9 17 22 26 28 34 36 36 33 32 33 29 33 34 34 35 34 36 37 33 29 28 29 27 24 22 20 20 18
9 6 7 8 14 16 19 22 31 34 34 28 29 25 22 23 25 27 27 30 31 28 26 23 22 21 21 19 20 20 20 18
12 14 14 12 14 15 16 18 23 28 25 22 21 18 19 22 24 23 23 22 22 21 20 20 20 16 16 16 18 19 19 17
12 11 7 15 15 15 17 20 21 20 19 20 22 23 24 24 23 23 21 20 21 21 19 17 17 17 16 16 17 17 14 11
Wind_Direction
176 169 173 178 185 182 187 181 187 182 184 183 182 180 187 187 184 185 187 191 191 192 191 191 187 190 189 193 197 199 205 202
168 167 173 184 184 186 180 185 183 185 184 188 184 183 183 188 191 194 191 195 199 199 200 196 195 200 203 204 209 209 210 211
166 163 174 187 183 190 192 186 186 187 188 194 189 189 185 190 191 191 198 200 204 205 210 206 211 210 209 214 212 212 218 215
184 173 175 188 189 186 192 190 185 186 189 195 188 202 196 192 195 200 207 210 212 215 217 217 222 221 220 220 219 218 218 213
183 175 172 188 197 200 200 198 192 193 190 199 194 197 195 202 206 209 213 218 222 224 227 232 232 228 229 229 230 227 227 214
185 187 186 195 193 196 198 202 198 201 202 203 205 207 208 212 221 224 227 230 230 231 234 236 235 235 237 235 230 228 233 227
186 187 180 193 202 197 195 199 199 197 201 203 211 212 211 213 220 226 230 235 237 237 237 240 242 240 239 237 235 237 237 236
177 179 181 185 197 200 199 199 200 202 203 207 212 216 217 220 224 228 233 238 241 242 241 240 242 243 244 242 241 240 241 239
184 187 187 189 194 195 195 198 203 206 208 212 216 218 220 226 230 231 235 239 243 245 244 245 246 247 246 244 245 246 239 237
193 186 190 191 195 197 197 199 205 207 210 214 217 220 222 226 232 235 241 246 249 249 248 249 250 249 246 243 252 250 241 235
200 196 196 199 203 201 199 203 207 211 214 217 221 224 229 233 235 242 245 248 249 252 254 255 251 251 251 246 248 238 233 231
203 202 207 207 205 203 206 208 213 214 215 218 224 231 235 240 242 244 248 253 247 252 252 254 250 260 256 246 237 230 227 227
201 202 202 202 208 204 207 211 214 212 205 207 219 234 231 231 237 238 242 233 225 250 247 249 246 248 249 248 238 226 221 220
204 204 204 206 210 210 211 211 211 205 198 206 213 220 222 222 225 231 238 226 228 243 239 232 242 242 245 238 227 225 221 222
201 209 205 209 214 212 215 211 207 201 204 204 210 219 225 223 228 229 228 221 234 240 238 233 238 244 240 226 223 216 212 209
187 196 195 198 207 210 214 212 208 201 201 203 211 218 223 223 223 221 221 225 224 228 224 227 230 229 223 212 210 206 198 187
198 205 169 194 191 185 191 195 196 196 197 190 201 203 206 217 223 217 216 215 213 214 217 220 207 203 205 206 201 188 180 174
177 199 193 188 174 171 174 173 185 184 183 181 191 193 203 208 209 207 206 199 198 194 190 187 186 182 179 178 178 171 164 166
193 192 162 162 157 152 152 163 173 171 171 174 179 185 186 185 182 183 180 177 175 172 171 169 161 158 161 161 163 162 160 160